Regional Weather Roundup
Issued by NWS

Home | Current Version | Previous Version | Graphics & Text | Print | Product List | Glossary On
Versions: 1 2 3 4 5 6 7 8 9 10 11 12 13 14 15 16 17 18 19 20 21 22 23 24 25 26 27 28 29 30 31 32 33 34 35 36 37 38 39 40 41 42 43 44 45 46 47 48 49 50
000
ASUS43 KLMK 211010
RWRKY
KENTUCKY REGIONAL WEATHER ROUNDUP
NATIONAL WEATHER SERVICE LOUISVILLE KY
600 AM EDT SUN SEP 21 2014

NOTE "FAIR" INDICATES FEW OR NO CLOUDS BELOW 12,000 FEET
WITH NO SIGNIFICANT WEATHER AND/OR OBSTRUCTIONS TO VISIBILITY.

KYZ001>023-026-027-061>063-070>075-211100-
WESTERN AND SOUTH CENTRAL KENTUCKY

CITY           SKY/WX    TMP DP  RH WIND       PRES   REMARKS
PADUCAH        CLEAR     73  67  81 SW7       29.92F
HENDERSON      PTCLDY    72  64  78 SW9       29.88F
OWENSBORO      MOCLDY    71  67  87 SW10      29.89F
HOPKINSVILLE   CLEAR     69  69 100 SW10      29.95S
BOWLING GREEN  CLOUDY    69  64  84 SW7       29.94F
GLASGOW        PTCLDY    65  65 100 CALM      29.95S
$$

KYZ024-025-028>034-038-045-046-053-211100-
NORTH CENTRAL KENTUCKY

CITY           SKY/WX    TMP DP  RH WIND       PRES   REMARKS
LOUISVILLE/SDF CLOUDY    74  66  76 W13       29.87F
LOUISVILLE/LOU CLOUDY    74  66  76 W10       29.87F
FORT KNOX      MOCLDY    70  66  86 SW12      29.88F
$$

KYZ035>037-039>044-047>052-055>060-089>105-211100-
NORTHEAST KENTUCKY

CITY           SKY/WX    TMP DP  RH WIND       PRES   REMARKS
LEXINGTON      CLEAR     68  64  87 SW10      29.91S
COVINGTON      MOCLDY    70  65  84 SW7       29.84S
FRANKFORT      PTCLDY    69  65  86 SW9       29.87F
$$

KYZ054-064>069-076>088-106>120-211100-
SOUTHEAST KENTUCKY

CITY           SKY/WX    TMP DP  RH WIND       PRES   REMARKS
JACKSON        CLEAR     64  60  87 VRB3      29.95S
LONDON         CLEAR     63  59  87 CALM      29.98R
SOMERSET       CLEAR     61  61 100 CALM      29.97F FOG
MIDDLESBORO    FOG       59  59 100 CALM      30.00S VSB 1/4
MONTICELLO     SUNNY     59  59 100 CALM      29.98S
$$



USA.gov is the U.S. government's official web portal to all federal, state and local government web resources and services.